Regional Weather Roundup
Issued by NWS Upton, NY

Current Version | Previous Version | Text Only | Print | Product List | Glossary On
Versions: 1 2 3 4 5 6 7 8 9 10 11 12 13 14 15 16 17 18 19 20 21 22 23 24 25 26 27 28 29 30 31 32 33 34 35 36 37 38 39 40 41 42 43 44 45 46 47 48 49 50
000
ASUS41 KOKX 010904
RWROKX

REGIONAL WEATHER ROUNDUP
NATIONAL WEATHER SERVICE NEW YORK NY
500 AM EDT TUE SEP 01 2015

NOTE: "FAIR" INDICATES FEW OR NO CLOUDS BELOW 12,000 FEET WITH NO
SIGNIFICANT WEATHER AND/OR OBSTRUCTIONS TO VISIBILITY.

NYZ071-072-176-178-NJZ106-104-011000-
NEW YORK CITY METRO AREA


CITY           SKY/WX    TMP DP  RH WIND       PRES   REMARKS
CENTRAL PARK   CLEAR     78  65  63 CALM      30.03F
LAGUARDIA APRT PTCLDY    77  67  71 CALM      29.99F
KENNEDY INTL   PTCLDY    77  67  71 N3        30.01S
NEWARK/LIBERTY MOCLDY    77  69  76 W3        30.00S
BRNX BOT. GARD   N/A     73  64  73 E1        30.01F
TETERBORO      CLEAR     75  64  68 CALM      29.99F
$$

NYZ177-179-078>081-011000-
LONG ISLAND NEW YORK

CITY           SKY/WX    TMP DP  RH WIND       PRES   REMARKS
FARMINGDALE    CLEAR     74  66  76 N3        30.00S
ISLIP          MOCLDY    72  67  84 CALM      29.98S
SHIRLEY        CLEAR     70  67  90 CALM      30.00S
WESTHAMPTON    PTCLDY    68  64  87 NW3       30.01S
MONTAUK POINT    N/A     74  67  78 W5        30.00R
$$

NYZ052-065-067-011000-
HUDSON VALLEY

CITY           SKY/WX    TMP DP  RH WIND       PRES   REMARKS
WHITE PLAINS   CLEAR     69  65  86 NW3       30.01S
NEWBURGH       NOT AVBL
MONTGOMERY     CLEAR     65  63  93 CALM      30.02S FOG
POUGHKEEPSIE   CLEAR     64  61  90 CALM      30.02R
ALBANY         PTCLDY    64  60  87 CALM      30.04R
$$

NJZ001-105-106-008-010-013-015-019>022-104-011000-
NEW JERSEY

CITY           SKY/WX    TMP DP  RH WIND       PRES   REMARKS
NEWARK/LIBERTY MOCLDY    77  69  76 W3        30.00S
TETERBORO      CLEAR     75  64  68 CALM      29.99F
CALDWELL       CLEAR     69  66  90 CALM      30.02S
MORRISTOWN       N/A     64  61  88 CALM      30.02S FOG
SOMERVILLE     CLEAR     68  65  90 CALM      30.00S FOG
SUSSEX         PTCLDY    64  62  93 CALM      30.03F FOG
ANDOVER          N/A     64  64 100 CALM      30.04F
TRENTON        CLEAR     72  67  84 CALM      30.01S
MILLVILLE      CLEAR     71  70  96 W3        30.03S
ATLANTIC CITY  CLEAR     72  70  93 W6        30.02F
WRIGHTSTOWN    CLEAR     69  68  99 W2        29.99F
TOMS RIVER     CLEAR     66  64  94 CALM      30.02S
BELMAR         CLEAR     70  63  78 W5        30.01S
$$

PAZ047>061-062-071-011000-
EASTERN PENNSYLVANIA

CITY           SKY/WX    TMP DP  RH WIND       PRES   REMARKS
PHILADELPHIA   CLEAR     74  69  85 SW5       30.03S
ALLENTOWN      CLEAR     68  65  90 CALM      30.03F FOG
SCRANTON       CLEAR     66  63  90 SE5       30.06S
$$

CTZ002-004>006-009-010-012-RIZ004-006-007-MAZ004-011-015-011000-
SOUTHERN NEW ENGLAND
 IN CT

CITY           SKY/WX    TMP DP  RH WIND       PRES   REMARKS
BRADLEY INTL   CLEAR     64  62  93 NW3       30.00R
HARTFORD       CLEAR     68  65  90 CALM      29.99S
DANBURY        CLEAR     64  60  87 SW3       30.03S FOG
WTRBRY/OXFORD  CLEAR     64  57  77 N7        30.03S
BRIDGEPORT     CLEAR     74  65  73 CALM      29.99S
MERIDEN        CLEAR     66  63  90 CALM      30.00S
NEW HAVEN      CLEAR     72  64  76 NW3       29.99F
CHESTER        NOT AVBL
GROTON         CLEAR     69  64  84 N8        29.97S
WILLIMANTIC    CLEAR     63  61  93 CALM      30.00S

 IN RI

CITY           SKY/WX    TMP DP  RH WIND       PRES   REMARKS
PROVIDENCE     CLEAR     71  62  73 NW6       29.98S
BLOCK ISLAND   CLEAR     70  66  88 NW6       29.98S
WESTERLY       CLEAR     71  63  75 N6        29.98S

 IN MA

CITY           SKY/WX    TMP DP  RH WIND       PRES   REMARKS
BOSTON         PTCLDY    72  62  71 NW10      29.98S
WORCESTER      CLEAR     67  59  75 NW8       30.03R
WESTFIELD      CLEAR     64  61  90 CALM      30.01R
PROVINCETOWN     N/A     70  63  78 NW6       29.97R
NANTUCKET      CLEAR     72  66  81 N8        29.95S
$$

ANZ330-335-338-340-345-350-353-355-011000-
COASTAL MARINE OBSERVATIONS


STATION/POSITION TIME  SKY/WX   TEMP    WIND        PRES    VSBY  WAVE
                                AIR SEA DIR/SP/G                  HT/PER
                 (UTC)          (F)     (DEG/KT/KT) (MB)    (MI)  (FT/S)
NY HARB ENTRANCE 0750            77 76  280/  8/ 12 1015.6          2/ 9
4S FIRE IS       NOT AVBL
20S FIRE ISLAND  0750            75 74  270/  8/ 10 1015.6          3/10
GREAT SOUTH BAY  0800            76 78  360/  6/  8   N/A
23SW MTP         0850            74 71  330/  8/  8 1014.9          3/ 6
HUDSON CANYON    NOT AVBL
KINGS POINT      0800            76 74   40/  2/  3 1015.3
EXECUTION ROCKS  0800            75      CALM  /  2   N/A
CENTRAL LI SOUND NOT AVBL
EASTERN LI SOUND 0800            73 70  290/  4/  6   N/A
ROBBINS REEF     0800            77     290/  9/ 10 1014.8
$$


>>>>>>>>>>>>>>>>>>>>>>>>>>>> KEY <<<<<<<<<<<<<<<<<<<<<<<<<<<
>                                                          <
>     SKY/WX - SKY CONDITION/PRESENT WEATHER               <
>     TMP    - TEMPERATURE IN FAHRENHEIT                   <
>     DP     - DEWPOINT IN FAHRENHEIT                      <
>     RH     - RELATIVE HUMIDITY IN PERCENT                <
>     WIND   - DIRECTION AND SPEED IN MPH                  <
>     PRES   - MEAN SEA LEVEL PRESSURE IN INCHES OF HG     <
>     WCI    - WIND CHILL INDEX                            <
>     VSB    - VISIBILITY IN MILES                         <
>     HX     - HEAT INDEX                                  <
>     TC     - TEMPERATURE IN CELSIUS                      <
>     VRB    - VARIABLE WIND DIRECTION                     <
>                                                          <
>>>>>>>>>>>>>>>>>>>>>>>>>>>> KEY <<<<<<<<<<<<<<<<<<<<<<<<<<<




USA.gov is the U.S. government's official web portal to all federal, state and local government web resources and services.